ISS (ZARYA) 1 25544U 98067A 26237.20913067 .00007851 00000+0 14728-3 0 9993 2 25544 51.6330 318.4690 0007681 81.0568 279.1290 15.49618182582450 POISK 1 36086U 09060A 26237.20913067 .00007851 00000+0 14728-3 0 9991 2 36086 51.6330 318.4690 0007681 81.0568 279.1290 15.49618182582734 CSS (TIANHE) 1 48274U 21035A 26237.15701201 .00016413 00000+0 20680-3 0 9996 2 48274 41.4680 263.3320 0001651 251.6308 108.4351 15.59244825303932 ISS (NAUKA) 1 49044U 21066A 26237.20913067 .00007851 00000+0 14728-3 0 9999 2 49044 51.6330 318.4690 0007681 81.0568 279.1290 15.49618182582776 FREGAT DEB 1 49271U 11037PF 26237.13147711 .00016172 00000+0 24438-1 0 9998 2 49271 51.6397 154.3941 0926411 74.6335 295.4864 12.43752898233627 CSS (WENTIAN) 1 53239U 22085A 26237.15701201 .00016413 00000+0 20680-3 0 9999 2 53239 41.4680 263.3320 0001651 251.6308 108.4351 15.59244825288234 CSS (MENGTIAN) 1 54216U 22143A 26237.15701201 .00016413 00000+0 20680-3 0 9990 2 54216 41.4680 263.3320 0001651 251.6308 108.4351 15.59244825304442 HRC MONOBLOCK CAMERA 1 66052U 98067XR 26235.57429115 .00141453 00000+0 53727-3 0 9995 2 66052 51.6183 290.0785 0006469 17.5265 342.5961 15.86645422 48653 SZ-21 MODULE 1 66515U 25246C 26237.26102558 .00062066 00000+0 28332-3 0 9991 2 66515 41.4696 235.1504 0008710 160.7980 199.3196 15.82780522 44660 DUPLEX 1 66906U 98067XS 26237.20267876 .00042873 00000+0 38582-3 0 9997 2 66906 51.6254 299.6298 0003981 56.1039 304.0335 15.67762664 41465 KNACKSAT-2 1 67683U 98067XZ 26237.20551406 .00060193 00000+0 56710-3 0 9993 2 67683 51.6275 305.6765 0007297 82.1790 278.0034 15.66459981 31071 GXIBA-1 1 67685U 98067YB 26236.59743668 .00070649 00000+0 58647-3 0 9997 2 67685 51.6247 306.8406 0008031 76.0674 284.1216 15.69492763 31008 UITMSAT-2 1 67686U 98067YC 26237.20992099 .00142174 00000+0 82863-3 0 9991 2 67686 51.6243 299.6473 0008142 37.2990 322.8574 15.77440963 31158 LEOPARD 1 67687U 98067YD 26237.22125009 .00089480 00000+0 73906-3 0 9991 2 67687 51.6273 304.2902 0007777 45.6938 314.4696 15.69520087 31014 HMU-SAT2 1 67688U 98067YE 26237.18404653 .00105352 00000+0 73608-3 0 9998 2 67688 51.6254 301.7618 0007380 40.9979 319.1574 15.73431342 31043 CREW DRAGON 12 1 67796U 26031A 26237.20913067 .00007851 00000+0 14728-3 0 9990 2 67796 51.6330 318.4690 0007681 81.0568 279.1290 15.49618182583041 PROGRESS-MS 33 1 68319U 26058A 26237.20913067 .00007851 00000+0 14728-3 0 9991 2 68319 51.6330 318.4690 0007681 81.0568 279.1290 15.49618182582895 CYGNUS NG-24 1 68689U 26079A 26237.20913067 .00007851 00000+0 14728-3 0 9994 2 68689 51.6330 318.4690 0007681 81.0568 279.1290 15.49618182583166 PROGRESS-MS 34 1 68837U 26093A 26237.20913067 .00007851 00000+0 14728-3 0 9995 2 68837 51.6330 318.4690 0007681 81.0568 279.1290 15.49618182583206 TIANZHOU-10 1 69049U 26102A 26237.15701200 .00016416 00000+0 20683-3 0 9994 2 69049 41.4680 263.3320 0001653 251.5763 108.4896 15.59244828304366 SHENZHOU-23 (SZ-23) 1 69180U 26113A 26237.15701201 .00016413 00000+0 20680-3 0 9997 2 69180 41.4680 263.3320 0001651 251.6308 108.4351 15.59244825304268